Location: Bovenkerk
(52.2915°N, 4.8336°E)
Time: 09:54:08
(UTC+00:00)

Cosmos 1825 - Visible Passes

Search period start: 03 August 2020 00:00
Search period end: 13 August 2020 00:00
Orbit: 503 x 508 km, 82.5° (Epoch: 02 August)

Date Brightness Start Highest point End Pass type
(mag) Time Alt. Az. Time Alt. Az. Time Alt. Az.
06 Aug 5.8 20:14:13 10° W 20:15:52 12° WNW 20:17:29 10° NW visible
10 Aug 5.7 03:30:41 10° NNE 03:32:34 13° ENE 03:34:27 10° E visible
11 Aug 6.1 03:13:16 10° NE 03:14:13 11° ENE 03:15:10 10° ENE visible
